Stündliche Wetter Acacoyagua

Heute, 17 Juni, Donnerstag

Zeit Temperatur Niederschläge Wind Luftdruck Luftfeuchtigkeit
00:00 +25°C° 0 mm 1 m/S 730 mmHg 95%
01:00 +25°C° 1.6 mm 1 m/S 729 mmHg 95%
02:00 +25°C° 1.6 mm 1 m/S 729 mmHg 96%
03:00 +23°C° 1.6 mm 0 m/S 729 mmHg 96%
04:00 +23°C° 1.5 mm 0 m/S 729 mmHg 97%
05:00 +22°C° 1.5 mm 0 m/S 729 mmHg 97%
06:00 +22°C° 0 mm 0 m/S 729 mmHg 98%
07:00 +23°C° 0.5 mm 0 m/S 729 mmHg 97%
08:00 +23°C° 0.5 mm 0 m/S 730 mmHg 95%
09:00 +23°C° 0.5 mm 0 m/S 730 mmHg 94%
10:00 +24°C° 0.4 mm 0 m/S 730 mmHg 93%
11:00 +24°C° 0.4 mm 0 m/S 730 mmHg 91%
12:00 +26°C° 0.4 mm 1 m/S 730 mmHg 90%
13:00 +27°C° 0.6 mm 1 m/S 729 mmHg 89%
14:00 +27°C° 0.6 mm 1 m/S 729 mmHg 89%
15:00 +27°C° 0.6 mm 1 m/S 729 mmHg 88%
16:00 +26°C° 0.8 mm 1 m/S 729 mmHg 91%
17:00 +25°C° 0.8 mm 1 m/S 729 mmHg 94%
18:00 +25°C° 0.8 mm 1 m/S 729 mmHg 97%
19:00 +25°C° 0.2 mm 1 m/S 729 mmHg 96%
20:00 +25°C° 0.2 mm 1 m/S 730 mmHg 95%
21:00 +24°C° 0.2 mm 1 m/S 730 mmHg 94%
22:00 +24°C° 0.2 mm 1 m/S 730 mmHg 94%
23:00 +24°C° 0.2 mm 1 m/S 730 mmHg 94%

Morgen, 18 Juni, Freitag

Zeit Temperatur Niederschläge Wind Luftdruck Luftfeuchtigkeit
00:00 +24°C° 0.2 mm 1 m/S 730 mmHg 94%
01:00 +24°C° 0.1 mm 1 m/S 730 mmHg 93%
02:00 +24°C° 0.1 mm 1 m/S 730 mmHg 93%
03:00 +24°C° 0.1 mm 1 m/S 729 mmHg 93%
04:00 +24°C° 0 mm 1 m/S 729 mmHg 92%
05:00 +24°C° 0 mm 1 m/S 730 mmHg 92%
06:00 +24°C° 0 mm 1 m/S 730 mmHg 91%
07:00 +25°C° 0 mm 1 m/S 730 mmHg 86%
08:00 +27°C° 0 mm 1 m/S 730 mmHg 81%
09:00 +28°C° 0 mm 1 m/S 731 mmHg 75%
10:00 +29°C° 0 mm 1 m/S 730 mmHg 73%
11:00 +30°C° 0 mm 1 m/S 730 mmHg 70%
12:00 +31°C° 0 mm 2 m/S 730 mmHg 67%
13:00 +30°C° 0.4 mm 2 m/S 730 mmHg 72%
14:00 +29°C° 0.4 mm 2 m/S 730 mmHg 77%
15:00 +29°C° 0.4 mm 2 m/S 729 mmHg 82%
16:00 +28°C° 0.5 mm 1 m/S 729 mmHg 86%
17:00 +27°C° 0.5 mm 1 m/S 730 mmHg 89%
18:00 +25°C° 0.5 mm 0 m/S 730 mmHg 93%
19:00 +24°C° 0.2 mm 0 m/S 730 mmHg 93%
20:00 +24°C° 0.2 mm 0 m/S 731 mmHg 93%
21:00 +23°C° 0.2 mm 0 m/S 731 mmHg 94%
22:00 +25°C° 0.1 mm 1 m/S 731 mmHg 94%
23:00 +25°C° 0.1 mm 1 m/S 731 mmHg 94%

übermorgen, 19 Juni, Samstag

Zeit Temperatur Niederschläge Wind Luftdruck Luftfeuchtigkeit
00:00 +25°C° 0.1 mm 1 m/S 731 mmHg 94%
01:00 +24°C° 0.1 mm 1 m/S 731 mmHg 93%
02:00 +24°C° 0.1 mm 1 m/S 730 mmHg 93%
03:00 +24°C° 0.1 mm 1 m/S 730 mmHg 92%
04:00 +24°C° 0 mm 1 m/S 730 mmHg 92%
05:00 +24°C° 0 mm 1 m/S 730 mmHg 92%
06:00 +24°C° 0 mm 1 m/S 731 mmHg 91%
07:00 +26°C° 0 mm 1 m/S 731 mmHg 85%
08:00 +28°C° 0 mm 1 m/S 732 mmHg 78%
09:00 +30°C° 0 mm 1 m/S 732 mmHg 72%
10:00 +30°C° 0.1 mm 1 m/S 732 mmHg 70%
11:00 +31°C° 0.1 mm 1 m/S 731 mmHg 68%
12:00 +32°C° 0.1 mm 2 m/S 731 mmHg 66%
13:00 +31°C° 0.4 mm 2 m/S 731 mmHg 70%
14:00 +30°C° 0.4 mm 1 m/S 730 mmHg 74%
15:00 +30°C° 0.4 mm 1 m/S 730 mmHg 79%
16:00 +29°C° 0.4 mm 1 m/S 730 mmHg 83%
17:00 +28°C° 0.4 mm 1 m/S 730 mmHg 86%
18:00 +26°C° 0.4 mm 0 m/S 730 mmHg 90%
19:00 +25°C° 0.3 mm 0 m/S 731 mmHg 92%
20:00 +25°C° 0.3 mm 0 m/S 731 mmHg 93%
21:00 +24°C° 0.3 mm 0 m/S 732 mmHg 94%
22:00 +26°C° 0.4 mm 1 m/S 732 mmHg 94%
23:00 +25°C° 0.4 mm 1 m/S 732 mmHg 94%

20 Juni, Sonntag

Zeit Temperatur Niederschläge Wind Luftdruck Luftfeuchtigkeit
00:00 +25°C° 0.4 mm 1 m/S 732 mmHg 94%
01:00 +25°C° 0.1 mm 1 m/S 731 mmHg 93%
02:00 +25°C° 0.1 mm 1 m/S 731 mmHg 93%
03:00 +24°C° 0.1 mm 1 m/S 730 mmHg 93%
04:00 +24°C° 0 mm 1 m/S 731 mmHg 92%
05:00 +24°C° 0 mm 1 m/S 731 mmHg 92%
06:00 +24°C° 0 mm 1 m/S 731 mmHg 92%
07:00 +26°C° 0 mm 1 m/S 731 mmHg 86%
08:00 +25°C° 0 mm 0 m/S 732 mmHg 80%
09:00 +27°C° 0 mm 0 m/S 732 mmHg 75%
10:00 +30°C° 0 mm 1 m/S 732 mmHg 71%
11:00 +31°C° 0 mm 1 m/S 732 mmHg 68%
12:00 +31°C° 0 mm 2 m/S 731 mmHg 65%
13:00 +31°C° 0.2 mm 2 m/S 731 mmHg 68%
14:00 +31°C° 0.2 mm 2 m/S 730 mmHg 71%
15:00 +30°C° 0.2 mm 2 m/S 730 mmHg 75%
16:00 +29°C° 0.2 mm 1 m/S 730 mmHg 80%
17:00 +29°C° 0.2 mm 1 m/S 730 mmHg 85%
18:00 +28°C° 0.2 mm 1 m/S 730 mmHg 91%
19:00 +27°C° 0.3 mm 1 m/S 731 mmHg 91%
20:00 +27°C° 0.3 mm 1 m/S 731 mmHg 92%
21:00 +24°C° 0.3 mm 0 m/S 731 mmHg 93%
22:00 +24°C° 0.1 mm 0 m/S 731 mmHg 93%
23:00 +24°C° 0.1 mm 0 m/S 731 mmHg 93%

21 Juni, Montag

Zeit Temperatur Niederschläge Wind Luftdruck Luftfeuchtigkeit
00:00 +24°C° 0.1 mm 0 m/S 731 mmHg 93%
01:00 +24°C° 0.1 mm 0 m/S 731 mmHg 93%
02:00 +24°C° 0.1 mm 0 m/S 731 mmHg 93%
03:00 +23°C° 0.1 mm 0 m/S 730 mmHg 93%
04:00 +25°C° 0.1 mm 1 m/S 731 mmHg 93%
05:00 +25°C° 0.1 mm 1 m/S 731 mmHg 92%
06:00 +25°C° 0.1 mm 1 m/S 731 mmHg 92%
07:00 +26°C° 0 mm 1 m/S 731 mmHg 87%
08:00 +28°C° 0 mm 1 m/S 732 mmHg 81%
09:00 +29°C° 0 mm 1 m/S 732 mmHg 76%
10:00 +30°C° 0 mm 1 m/S 732 mmHg 71%
11:00 +31°C° 0 mm 1 m/S 731 mmHg 67%
12:00 +32°C° 0 mm 2 m/S 731 mmHg 62%
13:00 +31°C° 0.5 mm 2 m/S 730 mmHg 68%
14:00 +31°C° 0.5 mm 2 m/S 730 mmHg 74%
15:00 +30°C° 0.5 mm 2 m/S 730 mmHg 79%
16:00 +29°C° 0.5 mm 1 m/S 730 mmHg 83%
17:00 +28°C° 0.5 mm 1 m/S 730 mmHg 87%
18:00 +25°C° 0.5 mm 0 m/S 730 mmHg 91%
19:00 +25°C° 0.2 mm 0 m/S 730 mmHg 91%
20:00 +26°C° 0.2 mm 1 m/S 731 mmHg 92%
21:00 +26°C° 0.2 mm 1 m/S 731 mmHg 92%
22:00 +26°C° 0.1 mm 1 m/S 731 mmHg 92%
23:00 +25°C° 0.1 mm 1 m/S 731 mmHg 91%

22 Juni, Dienstag

Zeit Temperatur Niederschläge Wind Luftdruck Luftfeuchtigkeit
00:00 +25°C° 0.1 mm 1 m/S 731 mmHg 91%
01:00 +25°C° 0.1 mm 1 m/S 731 mmHg 91%
02:00 +25°C° 0.1 mm 1 m/S 731 mmHg 90%
03:00 +24°C° 0.1 mm 1 m/S 730 mmHg 90%
04:00 +24°C° 0 mm 1 m/S 730 mmHg 90%
05:00 +24°C° 0 mm 1 m/S 731 mmHg 90%
06:00 +24°C° 0 mm 1 m/S 731 mmHg 90%
07:00 +26°C° 0 mm 1 m/S 731 mmHg 82%
08:00 +28°C° 0 mm 1 m/S 731 mmHg 75%
09:00 +30°C° 0 mm 1 m/S 731 mmHg 67%
10:00 +31°C° 0.1 mm 1 m/S 731 mmHg 67%
11:00 +31°C° 0.1 mm 2 m/S 731 mmHg 67%
12:00 +32°C° 0.1 mm 2 m/S 731 mmHg 66%
13:00 +31°C° 0.8 mm 2 m/S 730 mmHg 71%
14:00 +31°C° 0.8 mm 2 m/S 730 mmHg 75%
15:00 +30°C° 0.8 mm 2 m/S 730 mmHg 79%
16:00 +29°C° 0.6 mm 1 m/S 730 mmHg 83%
17:00 +28°C° 0.6 mm 1 m/S 730 mmHg 86%
18:00 +26°C° 0.6 mm 0 m/S 730 mmHg 89%
19:00 +25°C° 0.3 mm 0 m/S 730 mmHg 90%
20:00 +25°C° 0.3 mm 0 m/S 730 mmHg 91%
21:00 +24°C° 0.3 mm 0 m/S 730 mmHg 93%
22:00 +24°C° 0.7 mm 0 m/S 730 mmHg 93%
23:00 +24°C° 0.7 mm 0 m/S 731 mmHg 93%
Mehr zeigen

Wir brauchen deine Erlaubnis

Meteoprog und unser Service Anbieter werden persönliche Daten aufbewahren, so wie Cookies, Geräte Bezeichnung oder ähnliche Technologien von deinem Gerät und Prozess, so wie Persönliche Daten Inhalte und Werbungen, genauso wie social Media und den Verkehr zu analysieren.

  • Aufbewahrung und/oder Zugang zu deiner Geräte Informationen.

    Cookies, Geräte Bezeichnung oder andere Informationen, können aufbewahrt oder Zugang zu deinem Gerät erhalten, für den Grund, der oben angegeben wird.

  • Personalisierte Werbung und Inhalte, Messungen, Einblick in das Publikum und Produkt Entwicklung.

    Werbungen und Inhalte können personalisiert werden, basierend auf ein Profil. Mehr Daten können besser personalisierte Werbungen und Inhalte hinzufügen. Werbung und Inhalte können gezeigt und gemessen werden. Einblicke über das Publikum, welche die Werbung gesehen haben und den Inhalt, können abgeleitet werden. So wie Daten können genutzt werden, um es zu verbessern oder die Benutzer Erfahrung zu verbessern das System und die Software.

Wenn du “Ich stimme zu” klickst, erlaubst du uns, die Cookies zu benutzen die Geräte Bezeichnung, den Web oder ähnliche Technologien zu benutzen. Deine Settings, können in deinem Gerät bei deinem Browser geändert werden.

Für den bestimmten Zweck, berechtigten Interessen beruhen darauf, mehr als auf den Inhalt. Du kannst mehr darüber in unseren Privaten und Cookie Politik lesen.